Wind_Speed
60 56 58 58 46 49 49 47 49 53 54 52 49 46 46 49 54 54 56 57 58 60 60 58 55 54 54 55 55 57 58 58
52 54 60 57 54 51 51 47 53 56 61 63 61 56 55 57 60 65 66 67 69 67 64 60 55 53 52 54 57 60 61 60
64 59 59 62 57 57 51 56 59 61 61 67 67 58 63 66 66 68 70 69 69 69 65 61 59 59 59 58 59 61 62 63
75 73 64 63 65 68 69 70 66 65 69 67 66 66 68 70 72 73 72 69 69 72 72 67 64 62 63 62 62 63 66 66
81 80 71 68 65 70 66 70 65 62 64 60 63 73 74 78 77 75 77 74 72 72 74 73 70 68 68 69 66 64 60 62
76 80 85 84 79 71 73 81 77 77 81 80 72 71 72 68 72 67 66 76 80 79 75 74 74 68 69 70 67 68 66 65
76 85 90 88 92 88 86 84 86 93 94 90 82 76 77 78 80 81 78 74 78 84 80 68 68 68 69 73 71 69 71 67
76 76 81 82 91 96 93 88 87 89 87 82 79 78 79 81 82 84 84 81 77 75 73 74 73 71 73 74 76 72 72 67
84 76 79 81 84 83 83 91 92 85 80 80 79 80 88 87 88 88 86 84 84 79 77 74 78 74 79 76 73 72 70 67
92 89 81 77 81 83 86 92 85 86 89 83 86 84 86 88 91 97 98 93 90 88 83 76 77 80 76 69 69 68 67 67
85 88 89 95 93 91 92 87 85 96 90 84 88 88 89 90 89 81 89 97 94 93 80 76 77 74 77 80 56 64 67 62
92 93 92 91 91 95 101 100 91 90 88 88 90 90 86 84 71 69 66 67 78 79 82 80 84 80 67 65 67 64 63 55
90 91 94 97 102 104 103 95 96 93 92 92 82 81 81 80 69 72 67 63 64 64 63 63 61 62 64 65 61 63 62 60
92 90 89 92 95 98 101 107 100 98 93 90 85 76 70 70 67 65 69 67 68 73 75 67 60 57 56 64 66 67 60 57
89 90 89 90 92 94 97 101 109 105 99 96 94 79 72 71 76 75 74 73 75 71 66 69 62 62 59 59 60 69 55 59
83 85 87 88 90 91 93 96 98 102 112 112 112 108 96 93 91 85 85 83 76 77 68 69 72 71 77 74 68 61 59 61
77 80 80 81 81 83 86 90 93 96 97 99 109 113 118 112 104 94 85 83 86 72 69 70 72 78 77 67 78 71 71 68
76 76 77 76 74 73 76 80 82 85 87 91 94 98 98 107 103 90 86 86 90 79 69 69 77 85 79 83 82 77 75 78
69 64 62 60 60 63 65 67 68 70 72 76 79 83 80 84 91 90 90 91 96 91 73 69 74 85 85 76 74 78 80 74
60 61 62 61 58 59 58 57 58 60 61 62 64 68 72 71 75 86 96 96 97 86 78 76 79 82 76 76 70 71 67 69
Wind_Direction
275 274 274 272 256 250 244 244 246 250 245 245 246 251 259 262 259 256 257 259 264 266 270 271 273 272 271 272 274 276 278 279
268 272 270 268 261 245 245 254 246 246 244 245 246 250 258 265 265 263 265 265 266 268 270 271 271 269 269 272 275 277 278 277
266 272 275 272 256 245 243 257 255 243 241 247 250 253 255 259 263 262 264 267 268 268 270 269 271 272 272 271 272 274 276 276
262 262 265 262 256 247 256 259 247 245 244 248 254 264 262 261 264 261 258 260 265 265 268 270 272 272 271 269 269 270 270 269
262 261 264 253 252 256 254 252 250 252 248 255 267 264 264 265 263 262 262 260 258 263 266 268 273 273 270 270 269 267 263 263
261 260 261 259 251 247 247 249 252 254 261 266 265 264 262 262 262 257 262 262 264 264 265 268 272 271 270 267 266 264 262 264
263 262 263 259 258 254 255 263 264 264 262 265 267 260 252 256 260 262 264 262 263 263 265 265 266 267 266 263 262 260 262 264
266 261 260 262 263 263 267 268 268 270 267 263 258 258 255 259 256 256 257 257 256 258 262 263 261 266 259 259 260 260 262 262
269 257 260 265 263 262 262 269 266 267 267 257 252 255 257 256 253 254 253 255 254 255 258 262 264 257 253 255 258 261 262 265
262 261 264 265 267 265 268 263 260 264 263 256 256 261 261 266 266 257 255 253 256 260 259 265 262 257 254 256 259 263 262 264
270 269 267 262 261 259 260 259 262 261 258 260 264 265 265 269 268 262 258 259 260 261 260 258 261 269 267 259 268 268 262 266
269 267 264 264 264 260 261 266 266 264 260 263 267 265 262 262 263 268 269 265 263 265 267 265 268 266 262 267 270 259 267 264
274 271 269 268 267 264 267 268 266 267 265 266 261 258 256 256 265 268 270 259 257 260 262 261 260 261 266 268 266 259 263 264
277 275 272 271 269 267 265 265 263 260 260 257 253 256 260 261 261 266 268 263 250 254 257 259 267 266 262 260 262 263 269 264
279 277 274 272 270 268 265 263 257 256 253 256 254 253 258 261 263 263 267 268 253 258 255 257 261 260 250 264 265 258 265 259
284 281 278 275 273 272 270 267 262 259 255 254 259 256 254 258 260 261 267 264 252 253 255 260 264 261 247 251 253 253 254 265
284 283 281 279 276 273 271 269 267 263 260 257 254 258 258 260 262 263 262 260 249 251 252 252 254 252 242 255 252 247 263 262
289 287 286 285 283 279 275 272 269 267 264 261 256 255 257 258 261 259 254 252 243 250 249 254 252 245 245 248 246 250 261 255
295 295 293 290 287 283 278 274 271 268 267 265 262 260 257 253 251 249 246 243 242 245 242 250 252 248 246 247 246 247 251 250
300 297 294 292 290 288 286 281 276 270 266 264 262 260 258 254 249 245 242 241 236 235 243 250 244 251 250 244 244 246 249 255
Height
5651 5652 5653 5649 5648 5646 5646 5649 5651 5653 5652 5652 5653 5655 5656 5658 5658 5658 5656 5657 5656 5657 5659 5659 5659 5660 5660 5659 5659 5659 5658 5658
5637 5636 5635 5636 5637 5634 5635 5638 5637 5636 5636 5637 5637 5637 5639 5641 5641 5640 5639 5639 5639 5639 5639 5641 5641 5642 5643 5645 5644 5643 5643 5642
5620 5619 5618 5622 5621 5621 5618 5620 5621 5618 5619 5621 5623 5622 5623 5623 5622 5622 5623 5621 5619 5619 5621 5622 5623 5623 5624 5624 5627 5627 5626 5626
5598 5599 5597 5598 5601 5602 5601 5599 5600 5602 5604 5604 5606 5606 5607 5607 5606 5604 5602 5603 5603 5604 5606 5606 5608 5608 5607 5607 5607 5608 5608 5608
5582 5579 5578 5577 5578 5580 5580 5580 5580 5581 5582 5584 5586 5587 5587 5586 5586 5587 5586 5585 5584 5586 5588 5589 5589 5589 5589 5590 5589 5589 5590 5590
5558 5559 5558 5557 5557 5557 5557 5557 5558 5558 5560 5562 5564 5565 5566 5565 5564 5565 5566 5568 5567 5565 5566 5567 5569 5572 5572 5570 5571 5570 5571 5571
5536 5535 5532 5531 5529 5533 5533 5532 5533 5533 5534 5536 5538 5541 5541 5543 5543 5546 5546 5547 5546 5547 5548 5547 5549 5552 5551 5550 5550 5552 5553 5553
5509 5508 5507 5504 5504 5505 5507 5508 5510 5509 5508 5511 5513 5516 5517 5519 5519 5520 5521 5522 5525 5526 5526 5528 5528 5531 5530 5529 5531 5531 5532 5534
5484 5483 5482 5481 5480 5482 5480 5482 5482 5482 5482 5486 5487 5491 5493 5493 5494 5496 5497 5499 5501 5503 5505 5506 5509 5508 5508 5508 5510 5511 5513 5515
5457 5458 5455 5455 5456 5458 5458 5455 5455 5458 5458 5459 5462 5465 5466 5467 5469 5471 5472 5473 5476 5479 5482 5483 5488 5489 5487 5487 5490 5492 5496 5497
5428 5428 5425 5425 5427 5428 5429 5427 5428 5430 5430 5431 5433 5435 5439 5441 5439 5442 5445 5447 5448 5452 5457 5460 5466 5467 5468 5470 5471 5473 5475 5477
5400 5401 5400 5397 5393 5396 5396 5395 5398 5400 5402 5405 5405 5408 5411 5415 5415 5416 5418 5423 5428 5431 5434 5439 5444 5446 5444 5448 5453 5454 5454 5456
5368 5371 5371 5368 5363 5363 5364 5364 5366 5370 5375 5378 5381 5382 5384 5387 5390 5392 5397 5400 5405 5407 5410 5414 5418 5419 5424 5427 5434 5433 5434 5437
5335 5338 5342 5336 5330 5332 5333 5329 5333 5338 5345 5351 5351 5353 5355 5361 5366 5370 5374 5379 5383 5388 5392 5396 5396 5396 5401 5409 5417 5414 5416 5418
5307 5305 5306 5304 5300 5297 5296 5295 5299 5304 5312 5317 5322 5326 5329 5336 5342 5346 5352 5356 5361 5365 5370 5374 5378 5379 5383 5390 5394 5395 5397 5397
5277 5273 5272 5270 5270 5266 5261 5259 5264 5268 5277 5285 5286 5293 5299 5307 5316 5322 5328 5335 5337 5343 5348 5353 5358 5359 5359 5366 5370 5376 5376 5377
5250 5241 5240 5238 5238 5233 5230 5226 5227 5232 5239 5245 5253 5257 5265 5275 5285 5294 5302 5308 5314 5319 5326 5332 5337 5338 5338 5342 5350 5353 5357 5357
5224 5218 5211 5208 5207 5203 5198 5195 5197 5198 5205 5209 5217 5226 5232 5241 5252 5262 5270 5280 5289 5295 5304 5310 5315 5319 5318 5321 5323 5326 5334 5338
5200 5194 5187 5182 5179 5174 5169 5167 5167 5169 5173 5177 5183 5189 5199 5208 5219 5228 5240 5250 5264 5271 5278 5286 5292 5296 5298 5296 5296 5303 5314 5319
5183 5174 5165 5160 5158 5152 5147 5145 5143 5144 5147 5149 5154 5159 5166 5175 5187 5197 5207 5221 5230 5241 5249 5261 5269 5274 5275 5274 5277 5284 5296 5301